| time (UTC) | temp F | wind direction | speed knots | gust knots | rain 1hr in | rain 24hr in | rain mn in | humidity % | barometer mb |
| 20260504050500 | 62 | 71 | 1.7 | 7.0 | 0.00 | 0.00 | 0.00 | 38 | 994.4 |
| 20260504045504 | 61 | 77 | 1.7 | 7.8 | 0.00 | 0.00 | 0.00 | 38 | 993.8 |
| 20260504045003 | 62 | 160 | 0.9 | 7.8 | 0.00 | 0.00 | 0.00 | 37 | 993.8 |
| 20260504044505 | 61 | 117 | 1.7 | 7.8 | 0.00 | 0.00 | 0.00 | 37 | 993.6 |
| 20260504042504 | 61 | 344 | 1.7 | 8.7 | 0.00 | 0.00 | 0.00 | 38 | 993.8 |
| 20260504042004 | 60 | 29 | 4.3 | 9.6 | 0.00 | 0.00 | 0.00 | 38 | 993.8 |
| 20260504041506 | 60 | 10 | 4.3 | 13.0 | 0.00 | 0.00 | 0.00 | 38 | 993.9 |
| 20260504041005 | 60 | 60 | 1.7 | 13.0 | 0.00 | 0.00 | 0.00 | 38 | 994.3 |
| 20260504040503 | 60 | 99 | 2.6 | 6.1 | 0.00 | 0.00 | 0.00 | 38 | 994.4 |
| 20260504040006 | 60 | 22 | 4.3 | 6.1 | 0.00 | 0.00 | 0.00 | 38 | 994.6 |
| 20260504035505 | 60 | 105 | 0.9 | 7.8 | 0.00 | 0.00 | 0.00 | 38 | 994.8 |
| 20260504035007 | 60 | 24 | 3.5 | 7.8 | 0.00 | 0.00 | 0.00 | 38 | 995.0 |
| 20260504034002 | 60 | 84 | 0.0 | 5.2 | 0.00 | 0.00 | 0.00 | 38 | 994.9 |
| 20260504033502 | 60 | 126 | 0.9 | 8.7 | 0.00 | 0.00 | 0.00 | 38 | 995.1 |
| 20260504033000 | 61 | 90 | 3.5 | 8.7 | 0.00 | 0.00 | 0.00 | 38 | 995.3 |
| 20260504032502 | 60 | 299 | 1.7 | 5.2 | 0.00 | 0.00 | 0.00 | 38 | 995.5 |
| 20260504032002 | 61 | 7 | 0.9 | 5.2 | 0.00 | 0.00 | 0.00 | 38 | 995.7 |
| 20260504031501 | 60 | 106 | 2.6 | 6.1 | 0.00 | 0.00 | 0.00 | 38 | 995.7 |
| 20260504031000 | 61 | 123 | 1.7 | 10.4 | 0.00 | 0.00 | 0.00 | 38 | 995.8 |
| 20260504030001 | 60 | 106 | 1.7 | 6.1 | 0.00 | 0.00 | 0.00 | 38 | 996.2 |
| 20260504025527 | 61 | 90 | 0.0 | 6.1 | 0.00 | 0.00 | 0.00 | 38 | 996.1 |
| 20260504025005 | 61 | 36 | 1.7 | 5.2 | 0.00 | 0.00 | 0.00 | 38 | 996.6 |
| 20260504024502 | 61 | 30 | 2.6 | 5.2 | 0.00 | 0.00 | 0.00 | 38 | 996.8 |
| 20260504024001 | 61 | 340 | 3.5 | 5.2 | 0.00 | 0.00 | 0.00 | 37 | 996.8 |
| 20260504023500 | 62 | 26 | 0.9 | 5.2 | 0.00 | 0.00 | 0.00 | 37 | 997.0 |
| 20260504022504 | 62 | 323 | 0.0 | 7.0 | 0.00 | 0.00 | 0.00 | 37 | 997.0 |
| 20260504022001 | 62 | 69 | 0.9 | 7.0 | 0.00 | 0.00 | 0.00 | 37 | 997.2 |
| 20260504021503 | 62 | 90 | 1.7 | 7.8 | 0.00 | 0.00 | 0.00 | 37 | 997.3 |
| 20260504021000 | 62 | 35 | 0.0 | 7.8 | 0.00 | 0.00 | 0.00 | 37 | 997.5 |
| 20260504020503 | 62 | 21 | 0.0 | 4.3 | 0.00 | 0.00 | 0.00 | 38 | 997.5 |
| 20260504020000 | 62 | 23 | 0.0 | 4.3 | 0.00 | 0.00 | 0.00 | 37 | 997.8 |
| 20260504014502 | 63 | 114 | 0.9 | 6.1 | 0.00 | 0.00 | 0.00 | 37 | 998.0 |
| 20260504014002 | 63 | 23 | 0.0 | 6.1 | 0.00 | 0.00 | 0.00 | 37 | 998.3 |
| 20260504013501 | 63 | 120 | 3.5 | 3.5 | 0.00 | 0.00 | 0.00 | 37 | 998.2 |
| 20260504013000 | 63 | 75 | 1.7 | 5.2 | 0.00 | 0.00 | 0.00 | 37 | 998.4 |
| 20260504012500 | 63 | 90 | 0.0 | 7.8 | 0.00 | 0.00 | 0.00 | 36 | 998.5 |
| 20260504012005 | 64 | 123 | 1.7 | 7.8 | 0.00 | 0.00 | 0.00 | 36 | 998.4 |
| 20260504011505 | 64 | 61 | 1.7 | 6.1 | 0.00 | 0.00 | 0.00 | 36 | 998.4 |
| 20260504011003 | 64 | 66 | 0.9 | 6.1 | 0.00 | 0.00 | 0.00 | 36 | 998.7 |
| 20260504010504 | 64 | 81 | 2.6 | 7.8 | 0.00 | 0.00 | 0.00 | 35 | 998.8 |
| 20260504005502 | 65 | 63 | 2.6 | 6.1 | 0.00 | 0.00 | 0.00 | 35 | 999.2 |
| 20260504004501 | 67 | 139 | 5.2 | 6.1 | 0.00 | 0.00 | 0.00 | 33 | 999.6 |
| 20260504004002 | 67 | 63 | 0.0 | 6.1 | 0.00 | 0.00 | 0.00 | 33 | 999.5 |
| 20260504003500 | 66 | 80 | 1.7 | 6.1 | 0.00 | 0.00 | 0.00 | 33 | 999.8 |
| 20260504003001 | 66 | 96 | 2.6 | 7.8 | 0.00 | 0.00 | 0.00 | 33 | 999.6 |
| 20260504002502 | 66 | 90 | 1.7 | 7.8 | 0.00 | 0.00 | 0.00 | 33 | 999.8 |
| 20260504002003 | 66 | 0 | 0.0 | 7.8 | 0.00 | 0.00 | 0.00 | 34 | 1000.0 |
| 20260504001501 | 66 | 137 | 3.5 | 7.8 | 0.00 | 0.00 | 0.00 | 33 | 1000.1 |
| 20260504001001 | 66 | 94 | 1.7 | 6.1 | 0.00 | 0.00 | 0.00 | 33 | 1000.0 |
| 20260504000501 | 66 | 80 | 3.5 | 6.1 | 0.00 | 0.00 | 0.00 | 33 | 1000.4 |
| 20260503235500 | 67 | 172 | 2.6 | 8.7 | 0.00 | 0.00 | 0.00 | 32 | 1000.6 |
| 20260503235002 | 66 | 50 | 1.7 | 10.4 | 0.00 | 0.00 | 0.00 | 32 | 1000.4 |
| 20260503234501 | 67 | 70 | 2.6 | 10.4 | 0.00 | 0.00 | 0.00 | 33 | 1000.7 |
| 20260503234001 | 67 | 122 | 3.5 | 8.7 | 0.00 | 0.00 | 0.00 | 32 | 1000.6 |
| 20260503233503 | 67 | 12 | 0.0 | 7.0 | 0.00 | 0.00 | 0.00 | 32 | 1000.9 |
| 20260503233002 | 68 | 63 | 0.9 | 9.6 | 0.00 | 0.00 | 0.00 | 31 | 1000.7 |
| 20260503232501 | 69 | 118 | 5.2 | 12.2 | 0.00 | 0.00 | 0.00 | 30 | 1001.1 |
| 20260503232000 | 69 | 32 | 2.6 | 12.2 | 0.00 | 0.00 | 0.00 | 30 | 1001.5 |
| 20260503231501 | 69 | 90 | 3.5 | 7.8 | 0.00 | 0.00 | 0.00 | 29 | 1001.6 |
| 20260503231001 | 69 | 19 | 1.7 | 7.8 | 0.00 | 0.00 | 0.00 | 30 | 1001.6 |
| 20260503230501 | 69 | 132 | 5.2 | 7.8 | 0.00 | 0.00 | 0.00 | 31 | 1001.6 |
| 20260503230002 | 70 | 77 | 0.9 | 8.7 | 0.00 | 0.00 | 0.00 | 30 | 1001.9 |
| 20260503225503 | 69 | 81 | 3.5 | 8.7 | 0.00 | 0.00 | 0.00 | 30 | 1001.8 |
| 20260503225001 | 70 | 110 | 1.7 | 7.8 | 0.00 | 0.00 | 0.00 | 31 | 1002.1 |
| 20260503223503 | 68 | 114 | 0.9 | 9.6 | 0.00 | 0.00 | 0.00 | 33 | 1002.3 |
| 20260503223001 | 69 | 137 | 7.8 | 9.6 | 0.00 | 0.00 | 0.00 | 31 | 1002.3 |
| 20260503222500 | 68 | 138 | 2.6 | 10.4 | 0.00 | 0.00 | 0.00 | 31 | 1002.6 |
| 20260503222003 | 68 | 53 | 1.7 | 10.4 | 0.00 | 0.00 | 0.00 | 32 | 1002.5 |
| 20260503221503 | 67 | 139 | 3.5 | 8.7 | 0.00 | 0.00 | 0.00 | 33 | 1002.7 |
| 20260503221002 | 67 | 194 | 0.9 | 9.6 | 0.00 | 0.00 | 0.00 | 32 | 1002.7 |
| 20260503220503 | 68 | 120 | 6.1 | 9.6 | 0.00 | 0.00 | 0.00 | 31 | 1002.8 |
| 20260503220003 | 68 | 191 | 3.5 | 9.6 | 0.00 | 0.00 | 0.00 | 30 | 1002.8 |
| 20260503215502 | 69 | 73 | 1.7 | 7.8 | 0.00 | 0.00 | 0.00 | 30 | 1003.0 |
| 20260503215003 | 70 | 72 | 3.5 | 7.8 | 0.00 | 0.00 | 0.00 | 28 | 1003.2 |
| 20260503214004 | 68 | 156 | 1.7 | 11.3 | 0.00 | 0.00 | 0.00 | 28 | 1003.3 |
| 20260503213505 | 68 | 94 | 4.3 | 11.3 | 0.00 | 0.00 | 0.00 | 27 | 1003.7 |
| 20260503213001 | 68 | 149 | 2.6 | 9.6 | 0.00 | 0.00 | 0.00 | 27 | 1003.6 |
| 20260503212500 | 68 | 110 | 3.5 | 8.7 | 0.00 | 0.00 | 0.00 | 28 | 1004.1 |
| 20260503212000 | 69 | 96 | 0.9 | 7.0 | 0.00 | 0.00 | 0.00 | 28 | 1004.0 |
| 20260503211503 | 69 | 110 | 2.6 | 7.8 | 0.00 | 0.00 | 0.00 | 28 | 1004.1 |
| 20260503211002 | 69 | 117 | 1.7 | 9.6 | 0.00 | 0.00 | 0.00 | 30 | 1004.1 |
| 20260503210501 | 68 | 122 | 3.5 | 9.6 | 0.00 | 0.00 | 0.00 | 28 | 1004.4 |
| 20260503210003 | 68 | 36 | 1.7 | 7.0 | 0.00 | 0.00 | 0.00 | 29 | 1004.4 |
| 20260503205501 | 66 | 134 | 7.0 | 7.0 | 0.00 | 0.00 | 0.00 | 29 | 1004.5 |
| 20260503204503 | 67 | 53 | 1.7 | 7.8 | 0.00 | 0.00 | 0.00 | 30 | 1004.6 |
| 20260503204001 | 68 | 159 | 1.7 | 7.8 | 0.00 | 0.00 | 0.00 | 30 | 1004.6 |
| 20260503203456 | 68 | 65 | 1.7 | 8.7 | 0.00 | 0.00 | 0.00 | 29 | 1004.5 |
| 20260503202956 | 68 | 173 | 3.5 | 8.7 | 0.00 | 0.00 | 0.00 | 28 | 1004.7 |
| 20260503202456 | 69 | 62 | 2.6 | 7.0 | 0.00 | 0.00 | 0.00 | 29 | 1004.6 |
| 20260503202001 | 67 | 150 | 1.7 | 7.0 | 0.00 | 0.00 | 0.00 | 30 | 1005.0 |
| 20260503200953 | 67 | 132 | 3.5 | 7.8 | 0.00 | 0.00 | 0.00 | 31 | 1005.0 |
| 20260503200454 | 67 | 64 | 2.6 | 7.8 | 0.00 | 0.00 | 0.00 | 31 | 1005.3 |
| 20260503195952 | 67 | 86 | 2.6 | 7.0 | 0.00 | 0.00 | 0.00 | 29 | 1005.3 |
| 20260503195454 | 67 | 132 | 1.7 | 13.0 | 0.00 | 0.00 | 0.00 | 31 | 1005.5 |
| 20260503194952 | 67 | 154 | 1.7 | 13.0 | 0.00 | 0.00 | 0.00 | 31 | 1005.7 |
| 20260503194453 | 67 | 110 | 1.7 | 7.8 | 0.00 | 0.00 | 0.00 | 30 | 1005.9 |
| 20260503193453 | 67 | 74 | 2.6 | 9.6 | 0.00 | 0.00 | 0.00 | 30 | 1005.9 |
| 20260503192953 | 66 | 180 | 0.9 | 6.1 | 0.00 | 0.00 | 0.00 | 31 | 1006.1 |
| 20260503192453 | 67 | 139 | 3.5 | 7.0 | 0.00 | 0.00 | 0.00 | 32 | 1006.0 |
| 20260503191951 | 66 | 170 | 2.6 | 8.7 | 0.00 | 0.00 | 0.00 | 32 | 1006.4 |
| 20260503190448 | 65 | 134 | 4.3 | 13.0 | 0.00 | 0.00 | 0.00 | 31 | 1006.7 |
| 20260503185950 | 64 | 166 | 1.7 | 8.7 | 0.00 | 0.00 | 0.00 | 33 | 1007.0 |
| 20260503185437 | 64 | 108 | 5.2 | 8.7 | 0.00 | 0.00 | 0.00 | 31 | 1006.7 |
| 20260503184939 | 64 | 157 | 3.5 | 8.7 | 0.00 | 0.00 | 0.00 | 32 | 1006.9 |
| 20260503183932 | 65 | 168 | 3.5 | 8.7 | 0.00 | 0.00 | 0.00 | 31 | 1007.1 |
| 20260503183432 | 64 | 197 | 3.5 | 7.0 | 0.00 | 0.00 | 0.00 | 31 | 1007.2 |
| 20260503182931 | 64 | 76 | 2.6 | 7.0 | 0.00 | 0.00 | 0.00 | 33 | 1007.3 |
| 20260503182434 | 64 | 191 | 3.5 | 11.3 | 0.00 | 0.00 | 0.00 | 32 | 1007.4 |
| 20260503181933 | 64 | 139 | 1.7 | 11.3 | 0.00 | 0.00 | 0.00 | 35 | 1007.4 |
| 20260503181431 | 64 | 130 | 1.7 | 7.0 | 0.00 | 0.00 | 0.00 | 34 | 1007.4 |
| 20260503180931 | 63 | 85 | 1.7 | 10.4 | 0.00 | 0.00 | 0.00 | 34 | 1007.5 |
| 20260503180433 | 62 | 159 | 2.6 | 10.4 | 0.00 | 0.00 | 0.00 | 34 | 1007.8 |
| 20260503175932 | 64 | 150 | 2.6 | 7.0 | 0.00 | 0.00 | 0.00 | 35 | 1007.9 |
| 20260503175432 | 61 | 132 | 1.7 | 7.0 | 0.00 | 0.00 | 0.00 | 33 | 1007.8 |
| 20260503174931 | 62 | 135 | 2.6 | 7.0 | 0.00 | 0.00 | 0.00 | 34 | 1007.7 |
| 20260503174432 | 62 | 110 | 1.7 | 5.2 | 0.00 | 0.00 | 0.00 | 34 | 1007.9 |
| 20260503173932 | 62 | 132 | 1.7 | 8.7 | 0.00 | 0.00 | 0.00 | 34 | 1008.4 |
| 20260503173432 | 60 | 85 | 1.7 | 9.6 | 0.00 | 0.00 | 0.00 | 36 | 1008.3 |
| 20260503172933 | 62 | 164 | 4.3 | 9.6 | 0.00 | 0.00 | 0.00 | 33 | 1008.2 |
| 20260503172432 | 61 | 160 | 2.6 | 7.0 | 0.00 | 0.00 | 0.00 | 36 | 1008.3 |
| 20260503171932 | 61 | 117 | 3.5 | 7.0 | 0.00 | 0.00 | 0.00 | 34 | 1008.2 |
| 20260503171430 | 61 | 135 | 2.6 | 8.7 | 0.00 | 0.00 | 0.00 | 35 | 1008.5 |
| 20260503170929 | 60 | 112 | 6.1 | 8.7 | 0.00 | 0.00 | 0.00 | 36 | 1008.5 |
| 20260503170430 | 60 | 341 | 2.6 | 6.1 | 0.00 | 0.00 | 0.00 | 37 | 1008.5 |
| 20260503150901 | 55 | 210 | 2.6 | 7.0 | 0.00 | 0.00 | 0.00 | 37 | 1009.5 |
| 20260503150403 | 55 | 148 | 1.7 | 7.0 | 0.00 | 0.00 | 0.00 | 38 | 1009.4 |
| 20260503130902 | 48 | 173 | 0.9 | 5.2 | 0.00 | 0.00 | 0.00 | 57 | 1009.2 |
| 20260503130400 | 47 | 126 | 0.9 | 5.2 | 0.00 | 0.00 | 0.00 | 58 | 1009.2 |
| 20260503090305 | 41 | 111 | 0.0 | 1.7 | 0.00 | 0.00 | 0.00 | 89 | 1007.8 |
| 20260503081216 | 38 | 114 | 0.0 | 0.0 | 0.00 | 0.00 | 0.00 | 96 | 1007.8 |
| 20260503080203 | 38 | 114 | 0.0 | 0.9 | 0.00 | 0.00 | 0.00 | 95 | 1007.6 |
| 20260503072705 | 38 | 69 | 0.0 | 1.7 | 0.00 | 0.00 | 0.00 | 94 | 1007.5 |
| 20260503072204 | 39 | 131 | 0.0 | 1.7 | 0.00 | 0.00 | 0.00 | 94 | 1007.7 |
| 20260503071704 | 39 | 105 | 0.0 | 1.7 | 0.00 | 0.00 | 0.00 | 94 | 1007.5 |
| 20260503071205 | 40 | 157 | 0.0 | 0.0 | 0.00 | 0.00 | 0.00 | 94 | 1007.5 |
| 20260503070703 | 39 | 157 | 0.0 | 0.0 | 0.00 | 0.00 | 0.00 | 94 | 1007.6 |
| 20260503070200 | 39 | 157 | 0.0 | 0.9 | 0.00 | 0.00 | 0.00 | 93 | 1007.5 |
| 20260503060204 | 42 | 157 | 0.0 | 0.0 | 0.00 | 0.00 | 0.00 | 88 | 1007.9 |
| 20260503054703 | 43 | 157 | 0.0 | 0.9 | 0.00 | 0.00 | 0.00 | 85 | 1007.9 |
| 20260503054205 | 43 | 157 | 0.0 | 0.9 | 0.00 | 0.00 | 0.00 | 84 | 1007.9 |
| 20260503053204 | 44 | 74 | 0.0 | 0.9 | 0.00 | 0.00 | 0.00 | 83 | 1007.6 |